Location: Leverkusen
(51.0459°N, 7.0192°E)
Time: 13:28:27
(UTC+01:00)

ISS - Pass Details

Date: 29 January 2019
Orbit: 403 x 411 km, 51.6° (Epoch: 23 February)

Event Time Altitude Azimuth Distance (km) Brightness Sun altitude
Rises 19:49:12 0° 271° (W) 2,337 1.5 -23.8°
Reaches altitude 10° 19:51:18 10° 273° (W) 1,478 0.1 -24.1°
Enters shadow 19:53:23 36° 279° (W) 676 -2.2 -24.5°
